| time (UTC) | temp F | wind direction | speed MPH | gust MPH | rain 1hr in | rain 24hr in | rain mn in | humidity % | barometer mb |
| 20260905180612 | 94 | 245 | 2.0 | 10.0 | 0.00 | 0.00 | 0.00 | 51 | 1015.0 |
| 20260905180114 | 94 | 205 | 2.0 | 11.0 | 0.00 | 0.00 | 0.00 | 51 | 1015.0 |
| 20260905175613 | 94 | 209 | 6.0 | 11.0 | 0.00 | 0.00 | 0.00 | 51 | 1015.2 |
| 20260905175112 | 95 | 138 | 7.0 | 9.0 | 0.00 | 0.00 | 0.00 | 51 | 1015.2 |
| 20260905174612 | 94 | 101 | 3.0 | 10.0 | 0.00 | 0.00 | 0.00 | 50 | 1015.2 |
| 20260905174112 | 94 | 161 | 6.0 | 10.0 | 0.00 | 0.00 | 0.00 | 51 | 1015.2 |
| 20260905173610 | 94 | 200 | 3.0 | 12.0 | 0.00 | 0.00 | 0.00 | 51 | 1015.3 |
| 20260905173114 | 93 | 200 | 1.0 | 12.0 | 0.00 | 0.00 | 0.00 | 53 | 1015.6 |
| 20260905172612 | 93 | 150 | 6.0 | 11.0 | 0.00 | 0.00 | 0.00 | 52 | 1015.4 |
| 20260905172111 | 94 | 227 | 2.0 | 8.0 | 0.00 | 0.00 | 0.00 | 52 | 1015.5 |
| 20260905171616 | 94 | 92 | 3.0 | 4.0 | 0.00 | 0.00 | 0.00 | 53 | 1015.5 |
| 20260905170947 | 94 | 201 | 1.0 | 5.0 | 0.00 | 0.00 | 0.00 | 53 | 1015.6 |
| 20260905170451 | 93 | 200 | 1.0 | 6.0 | 0.00 | 0.00 | 0.00 | 53 | 1015.7 |
| 20260905165954 | 92 | 202 | 3.0 | 6.0 | 0.00 | 0.00 | 0.00 | 54 | 1015.7 |
| 20260905165505 | 92 | 313 | 3.0 | 7.0 | 0.00 | 0.00 | 0.00 | 56 | 1015.7 |
| 20260905165016 | 92 | 326 | 2.0 | 8.0 | 0.00 | 0.00 | 0.00 | 55 | 1015.7 |
| 20260905164356 | 92 | 161 | 6.0 | 8.0 | 0.00 | 0.00 | 0.00 | 55 | 1015.8 |
| 20260905163914 | 92 | 225 | 5.0 | 8.0 | 0.00 | 0.00 | 0.00 | 56 | 1015.9 |
| 20260905163255 | 92 | 159 | 5.0 | 8.0 | 0.00 | 0.00 | 0.00 | 56 | 1015.8 |
| 20260905162814 | 91 | 103 | 6.0 | 8.0 | 0.00 | 0.00 | 0.00 | 57 | 1015.8 |
| 20260905162153 | 91 | 176 | 4.0 | 8.0 | 0.00 | 0.00 | 0.00 | 56 | 1015.9 |
| 20260905161715 | 91 | 323 | 4.0 | 8.0 | 0.00 | 0.00 | 0.00 | 57 | 1015.9 |
| 20260905161049 | 91 | 288 | 4.0 | 7.0 | 0.00 | 0.00 | 0.00 | 57 | 1015.8 |
| 20260905160611 | 91 | 286 | 2.0 | 7.0 | 0.00 | 0.00 | 0.00 | 56 | 1015.9 |
| 20260905155958 | 91 | 269 | 4.0 | 7.0 | 0.00 | 0.00 | 0.00 | 58 | 1015.8 |
| 20260905155352 | 90 | 259 | 3.0 | 9.0 | 0.00 | 0.00 | 0.00 | 59 | 1015.8 |
| 20260905154912 | 90 | 218 | 2.0 | 9.0 | 0.00 | 0.00 | 0.00 | 60 | 1015.8 |
| 20260905154252 | 89 | 240 | 2.0 | 8.0 | 0.00 | 0.00 | 0.00 | 60 | 1015.8 |
| 20260905153812 | 90 | 252 | 2.0 | 8.0 | 0.00 | 0.00 | 0.00 | 61 | 1015.8 |
| 20260905153148 | 89 | 282 | 7.0 | 8.0 | 0.00 | 0.00 | 0.00 | 62 | 1015.8 |
| 20260905152712 | 89 | 304 | 7.0 | 8.0 | 0.00 | 0.00 | 0.00 | 62 | 1015.8 |
| 20260905152058 | 88 | 273 | 6.0 | 9.0 | 0.00 | 0.00 | 0.00 | 62 | 1015.7 |
| 20260905151452 | 88 | 238 | 4.0 | 9.0 | 0.00 | 0.00 | 0.00 | 62 | 1015.8 |
| 20260905150849 | 88 | 242 | 1.0 | 9.0 | 0.00 | 0.00 | 0.00 | 63 | 1015.8 |
| 20260905150245 | 88 | 266 | 4.0 | 9.0 | 0.00 | 0.00 | 0.00 | 63 | 1015.6 |
| 20260905145646 | 87 | 281 | 3.0 | 11.0 | 0.00 | 0.00 | 0.00 | 63 | 1015.6 |
| 20260905145215 | 87 | 234 | 7.0 | 11.0 | 0.00 | 0.00 | 0.00 | 64 | 1015.6 |
| 20260905144615 | 87 | 244 | 4.0 | 7.0 | 0.00 | 0.00 | 0.00 | 67 | 1015.6 |
| 20260905144144 | 86 | 263 | 2.0 | 7.0 | 0.00 | 0.00 | 0.00 | 67 | 1015.6 |
| 20260905143716 | 86 | 215 | 5.0 | 11.0 | 0.00 | 0.00 | 0.00 | 69 | 1015.6 |
| 20260905143241 | 86 | 213 | 2.0 | 11.0 | 0.00 | 0.00 | 0.00 | 69 | 1015.6 |
| 20260905142644 | 85 | 243 | 3.0 | 11.0 | 0.00 | 0.00 | 0.00 | 69 | 1015.6 |
| 20260905142047 | 85 | 219 | 3.0 | 9.0 | 0.00 | 0.00 | 0.00 | 71 | 1015.7 |
| 20260905141444 | 84 | 234 | 4.0 | 9.0 | 0.00 | 0.00 | 0.00 | 73 | 1015.7 |
| 20260905140851 | 84 | 189 | 4.0 | 7.0 | 0.00 | 0.00 | 0.00 | 73 | 1015.6 |
| 20260905140259 | 84 | 240 | 4.0 | 8.0 | 0.00 | 0.00 | 0.00 | 74 | 1015.6 |
| 20260905135713 | 84 | 252 | 3.0 | 8.0 | 0.00 | 0.00 | 0.00 | 74 | 1015.6 |
| 20260905135244 | 83 | 293 | 2.0 | 4.0 | 0.00 | 0.00 | 0.00 | 75 | 1015.6 |
| 20260905134649 | 83 | 202 | 1.0 | 4.0 | 0.00 | 0.00 | 0.00 | 76 | 1015.6 |
| 20260905134100 | 83 | 202 | 2.0 | 4.0 | 0.00 | 0.00 | 0.00 | 77 | 1015.4 |
| 20260905133511 | 82 | 209 | 2.0 | 4.0 | 0.00 | 0.00 | 0.00 | 77 | 1015.4 |
| 20260905133046 | 82 | 211 | 2.0 | 3.0 | 0.00 | 0.00 | 0.00 | 78 | 1015.4 |
| 20260905132458 | 81 | 211 | 2.0 | 3.0 | 0.00 | 0.00 | 0.00 | 79 | 1015.3 |
| 20260905132034 | 81 | 211 | 1.0 | 3.0 | 0.00 | 0.00 | 0.00 | 79 | 1015.3 |
| 20260905131452 | 81 | 0 | 0.0 | 0.0 | 0.00 | 0.00 | 0.00 | 79 | 1015.2 |
| 20260905130902 | 80 | 0 | 0.0 | 0.0 | 0.00 | 0.00 | 0.00 | 81 | 1015.3 |
| 20260905130443 | 80 | 0 | 0.0 | 0.0 | 0.00 | 0.00 | 0.00 | 81 | 1015.3 |
| 20260905125858 | 79 | 0 | 0.0 | 0.0 | 0.00 | 0.00 | 0.00 | 82 | 1015.3 |
| 20260905125440 | 79 | 0 | 0.0 | 0.0 | 0.00 | 0.00 | 0.00 | 82 | 1015.1 |
| 20260905124856 | 79 | 0 | 0.0 | 0.0 | 0.00 | 0.00 | 0.00 | 82 | 1015.1 |
| 20260905124439 | 79 | 0 | 0.0 | 0.0 | 0.00 | 0.00 | 0.00 | 83 | 1015.1 |
| 20260905123900 | 78 | 0 | 0.0 | 0.0 | 0.00 | 0.00 | 0.00 | 83 | 1014.9 |
| 20260905123324 | 78 | 0 | 0.0 | 0.0 | 0.00 | 0.00 | 0.00 | 83 | 1014.8 |
| 20260905122747 | 78 | 0 | 0.0 | 0.0 | 0.00 | 0.00 | 0.00 | 83 | 1014.9 |
| 20260905122333 | 78 | 0 | 0.0 | 0.0 | 0.00 | 0.00 | 0.00 | 83 | 1014.8 |
| 20260905121755 | 78 | 0 | 0.0 | 0.0 | 0.00 | 0.00 | 0.00 | 83 | 1014.8 |
| 20260905121339 | 78 | 0 | 0.0 | 0.0 | 0.00 | 0.00 | 0.00 | 83 | 1014.6 |
| 20260905120803 | 78 | 0 | 0.0 | 0.0 | 0.00 | 0.00 | 0.00 | 83 | 1014.7 |
| 20260905120226 | 78 | 0 | 0.0 | 0.0 | 0.00 | 0.00 | 0.00 | 83 | 1014.6 |
| 20260905115649 | 78 | 0 | 0.0 | 0.0 | 0.00 | 0.00 | 0.00 | 83 | 1014.6 |
| 20260905115114 | 78 | 0 | 0.0 | 0.0 | 0.00 | 0.00 | 0.00 | 83 | 1014.6 |
| 20260905114529 | 78 | 0 | 0.0 | 0.0 | 0.00 | 0.00 | 0.00 | 83 | 1014.6 |
| 20260905113954 | 78 | 0 | 0.0 | 0.0 | 0.00 | 0.00 | 0.00 | 82 | 1014.5 |
| 20260905113542 | 79 | 0 | 0.0 | 0.0 | 0.00 | 0.00 | 0.00 | 82 | 1014.5 |
| 20260905113015 | 79 | 0 | 0.0 | 0.0 | 0.00 | 0.00 | 0.00 | 82 | 1014.5 |
| 20260905112432 | 79 | 0 | 0.0 | 0.0 | 0.00 | 0.00 | 0.00 | 82 | 1014.4 |
| 20260905111848 | 79 | 0 | 0.0 | 0.0 | 0.00 | 0.00 | 0.00 | 82 | 1014.4 |
| 20260905111426 | 79 | 0 | 0.0 | 0.0 | 0.00 | 0.00 | 0.00 | 82 | 1014.6 |
| 20260905110852 | 79 | 0 | 0.0 | 0.0 | 0.00 | 0.00 | 0.00 | 82 | 1014.5 |
| 20260905110435 | 79 | 0 | 0.0 | 0.0 | 0.00 | 0.00 | 0.00 | 82 | 1014.4 |
| 20260905105901 | 79 | 0 | 0.0 | 1.0 | 0.00 | 0.00 | 0.00 | 82 | 1014.4 |
| 20260905105322 | 79 | 0 | 0.0 | 2.0 | 0.00 | 0.00 | 0.00 | 81 | 1014.5 |
| 20260905104751 | 79 | 27 | 1.0 | 2.0 | 0.00 | 0.00 | 0.00 | 81 | 1014.6 |
| 20260905104223 | 80 | 28 | 2.0 | 2.0 | 0.00 | 0.00 | 0.00 | 80 | 1014.6 |
| 20260905103653 | 80 | 30 | 2.0 | 2.0 | 0.00 | 0.00 | 0.00 | 80 | 1014.8 |
| 20260905103124 | 80 | 0 | 0.0 | 2.0 | 0.00 | 0.00 | 0.00 | 79 | 1014.8 |
| 20260905102555 | 80 | 28 | 1.0 | 2.0 | 0.00 | 0.00 | 0.00 | 79 | 1014.8 |
| 20260905102015 | 80 | 30 | 1.0 | 2.0 | 0.00 | 0.00 | 0.00 | 79 | 1014.6 |
| 20260905101546 | 81 | 28 | 1.0 | 3.0 | 0.00 | 0.00 | 0.00 | 78 | 1014.6 |
| 20260905101130 | 81 | 30 | 1.0 | 3.0 | 0.00 | 0.00 | 0.00 | 78 | 1014.7 |
| 20260905100558 | 81 | 28 | 1.0 | 3.0 | 0.00 | 0.00 | 0.00 | 78 | 1014.6 |
| 20260905100134 | 81 | 30 | 1.0 | 3.0 | 0.00 | 0.00 | 0.00 | 77 | 1014.7 |
| 20260905095548 | 81 | 32 | 2.0 | 3.0 | 0.00 | 0.00 | 0.00 | 77 | 1014.6 |
| 20260905095140 | 81 | 30 | 2.0 | 4.0 | 0.00 | 0.00 | 0.00 | 77 | 1014.6 |
| 20260905094614 | 82 | 31 | 2.0 | 4.0 | 0.00 | 0.00 | 0.00 | 76 | 1014.5 |
| 20260905094057 | 82 | 28 | 2.0 | 5.0 | 0.00 | 0.00 | 0.00 | 76 | 1014.3 |
| 20260905093541 | 82 | 29 | 2.0 | 6.0 | 0.00 | 0.00 | 0.00 | 76 | 1014.3 |
| 20260905093025 | 82 | 30 | 4.0 | 6.0 | 0.00 | 0.00 | 0.00 | 76 | 1014.3 |
| 20260905092512 | 82 | 32 | 2.0 | 6.0 | 0.00 | 0.00 | 0.00 | 75 | 1014.2 |
| 20260905091950 | 82 | 32 | 3.0 | 8.0 | 0.00 | 0.00 | 0.00 | 75 | 1014.3 |
| 20260905091443 | 82 | 27 | 3.0 | 8.0 | 0.00 | 0.00 | 0.00 | 75 | 1014.2 |
| 20260905090934 | 82 | 32 | 4.0 | 6.0 | 0.00 | 0.00 | 0.00 | 74 | 1014.3 |
| 20260905090423 | 82 | 31 | 2.0 | 8.0 | 0.00 | 0.00 | 0.00 | 74 | 1014.3 |
| 20260905085913 | 83 | 32 | 3.0 | 10.0 | 0.00 | 0.00 | 0.00 | 74 | 1014.3 |
| 20260905085411 | 83 | 30 | 4.0 | 10.0 | 0.00 | 0.00 | 0.00 | 74 | 1014.3 |
| 20260905084911 | 83 | 32 | 4.0 | 8.0 | 0.00 | 0.00 | 0.00 | 74 | 1014.2 |
| 20260905084410 | 83 | 36 | 3.0 | 8.0 | 0.00 | 0.00 | 0.00 | 74 | 1014.3 |
| 20260905083913 | 83 | 26 | 3.0 | 9.0 | 0.00 | 0.00 | 0.00 | 74 | 1014.2 |
| 20260905083413 | 83 | 34 | 4.0 | 12.0 | 0.00 | 0.00 | 0.00 | 74 | 1014.2 |
| 20260905082911 | 83 | 34 | 5.0 | 12.0 | 0.00 | 0.00 | 0.00 | 73 | 1014.2 |
| 20260905082412 | 83 | 32 | 8.0 | 12.0 | 0.00 | 0.00 | 0.00 | 74 | 1014.1 |
| 20260905081911 | 83 | 29 | 3.0 | 6.0 | 0.00 | 0.00 | 0.00 | 73 | 1014.1 |
| 20260905081414 | 83 | 33 | 2.0 | 5.0 | 0.00 | 0.00 | 0.00 | 73 | 1014.1 |
| 20260905080903 | 83 | 30 | 3.0 | 6.0 | 0.00 | 0.00 | 0.00 | 73 | 1014.2 |
| 20260905080400 | 83 | 32 | 2.0 | 8.0 | 0.00 | 0.00 | 0.00 | 72 | 1014.1 |
| 20260905075846 | 83 | 29 | 2.0 | 8.0 | 0.00 | 0.00 | 0.00 | 72 | 1014.0 |
| 20260905075353 | 83 | 30 | 5.0 | 5.0 | 0.00 | 0.00 | 0.00 | 72 | 1014.1 |
| 20260905074749 | 83 | 30 | 2.0 | 5.0 | 0.00 | 0.00 | 0.00 | 71 | 1014.1 |
| 20260905074150 | 83 | 30 | 2.0 | 6.0 | 0.00 | 0.00 | 0.00 | 71 | 1014.1 |
| 20260905073551 | 84 | 30 | 3.0 | 8.0 | 0.00 | 0.00 | 0.00 | 71 | 1014.2 |
| 20260905072957 | 84 | 34 | 3.0 | 9.0 | 0.00 | 0.00 | 0.00 | 71 | 1014.3 |
| 20260905072514 | 84 | 33 | 3.0 | 9.0 | 0.00 | 0.00 | 0.00 | 71 | 1014.3 |
| 20260905072036 | 84 | 33 | 4.0 | 9.0 | 0.00 | 0.00 | 0.00 | 70 | 1014.3 |
| 20260905071448 | 84 | 360 | 3.0 | 9.0 | 0.00 | 0.00 | 0.00 | 70 | 1014.4 |
| 20260905070907 | 84 | 360 | 3.0 | 10.0 | 0.00 | 0.00 | 0.00 | 70 | 1014.4 |
| 20260905070414 | 84 | 360 | 4.0 | 10.0 | 0.00 | 0.00 | 0.00 | 70 | 1014.5 |
| 20260905065911 | 84 | 360 | 3.0 | 11.0 | 0.00 | 0.00 | 0.00 | 70 | 1014.4 |
| 20260905065434 | 85 | 36 | 5.0 | 11.0 | 0.00 | 0.00 | 0.00 | 69 | 1014.4 |
| 20260905064850 | 85 | 360 | 5.0 | 9.0 | 0.00 | 0.00 | 0.00 | 69 | 1014.4 |
| 20260905064417 | 85 | 360 | 3.0 | 9.0 | 0.00 | 0.00 | 0.00 | 69 | 1014.5 |
| 20260905063944 | 85 | 360 | 3.0 | 9.0 | 0.00 | 0.00 | 0.00 | 69 | 1014.5 |
| 20260905063512 | 85 | 360 | 5.0 | 9.0 | 0.00 | 0.00 | 0.00 | 68 | 1014.5 |
| 20260905063037 | 85 | 360 | 4.0 | 9.0 | 0.00 | 0.00 | 0.00 | 68 | 1014.4 |
| 20260905062456 | 85 | 35 | 6.0 | 9.0 | 0.00 | 0.00 | 0.00 | 68 | 1014.4 |
| 20260905062023 | 85 | 37 | 2.0 | 9.0 | 0.00 | 0.00 | 0.00 | 67 | 1014.5 |
| 20260905061551 | 86 | 36 | 2.0 | 11.0 | 0.00 | 0.00 | 0.00 | 67 | 1014.4 |
| 20260905061121 | 86 | 34 | 4.0 | 11.0 | 0.00 | 0.00 | 0.00 | 67 | 1014.5 |
| 20260905060549 | 86 | 36 | 7.0 | 10.0 | 0.00 | 0.00 | 0.00 | 67 | 1014.6 |
| 20260905060015 | 86 | 36 | 3.0 | 9.0 | 0.00 | 0.00 | 0.00 | 66 | 1014.4 |
| 20260905055445 | 86 | 212 | 5.0 | 9.0 | 0.00 | 0.00 | 0.00 | 66 | 1014.5 |
| 20260905055023 | 86 | 195 | 6.0 | 9.0 | 0.00 | 0.00 | 0.00 | 66 | 1014.4 |
| 20260905054453 | 86 | 209 | 6.0 | 10.0 | 0.00 | 0.00 | 0.00 | 65 | 1014.3 |
| 20260905054031 | 87 | 189 | 6.0 | 11.0 | 0.00 | 0.00 | 0.00 | 65 | 1014.2 |
| 20260905053512 | 87 | 196 | 5.0 | 11.0 | 0.00 | 0.00 | 0.00 | 65 | 1014.3 |
| 20260905053049 | 87 | 215 | 6.0 | 12.0 | 0.00 | 0.00 | 0.00 | 65 | 1014.2 |
| 20260905052526 | 87 | 172 | 5.0 | 12.0 | 0.00 | 0.00 | 0.00 | 64 | 1014.2 |
| 20260905052011 | 87 | 183 | 3.0 | 16.0 | 0.00 | 0.00 | 0.00 | 64 | 1014.1 |
| 20260905051548 | 87 | 188 | 5.0 | 16.0 | 0.00 | 0.00 | 0.00 | 64 | 1014.1 |
| 20260905051027 | 87 | 219 | 8.0 | 12.0 | 0.00 | 0.00 | 0.00 | 63 | 1014.2 |
| 20260905050503 | 87 | 193 | 3.0 | 9.0 | 0.00 | 0.00 | 0.00 | 63 | 1014.2 |
| 20260905050045 | 87 | 192 | 4.0 | 8.0 | 0.00 | 0.00 | 0.00 | 63 | 1014.2 |
| 20260905045632 | 88 | 204 | 6.0 | 8.0 | 0.00 | 0.00 | 0.00 | 63 | 1014.3 |
| 20260905045115 | 88 | 175 | 6.0 | 10.0 | 0.00 | 0.00 | 0.00 | 62 | 1014.1 |
| 20260905044603 | 88 | 173 | 3.0 | 10.0 | 0.00 | 0.00 | 0.00 | 62 | 1014.2 |
| 20260905044052 | 88 | 192 | 3.0 | 14.0 | 0.00 | 0.00 | 0.00 | 62 | 1014.2 |
| 20260905043546 | 88 | 186 | 8.0 | 14.0 | 0.00 | 0.00 | 0.00 | 61 | 1014.1 |
| 20260905043034 | 88 | 180 | 6.0 | 13.0 | 0.00 | 0.00 | 0.00 | 61 | 1014.0 |
| 20260905042527 | 88 | 221 | 7.0 | 13.0 | 0.00 | 0.00 | 0.00 | 61 | 1014.1 |
| 20260905042020 | 89 | 174 | 6.0 | 17.0 | 0.00 | 0.00 | 0.00 | 61 | 1014.0 |
| 20260905041512 | 89 | 208 | 5.0 | 17.0 | 0.00 | 0.00 | 0.00 | 60 | 1014.1 |
| 20260905041014 | 89 | 175 | 11.0 | 14.0 | 0.00 | 0.00 | 0.00 | 60 | 1014.1 |
| 20260905040511 | 89 | 172 | 5.0 | 14.0 | 0.00 | 0.00 | 0.00 | 60 | 1014.1 |
| 20260905040023 | 89 | 132 | 7.0 | 15.0 | 0.00 | 0.00 | 0.00 | 60 | 1014.1 |
| 20260905035505 | 89 | 192 | 9.0 | 16.0 | 0.00 | 0.00 | 0.00 | 59 | 1014.1 |
| 20260905035006 | 89 | 190 | 4.0 | 16.0 | 0.00 | 0.00 | 0.00 | 59 | 1014.1 |
| 20260905034503 | 90 | 163 | 5.0 | 12.0 | 0.00 | 0.00 | 0.00 | 58 | 1014.1 |
| 20260905034009 | 90 | 238 | 8.0 | 14.0 | 0.00 | 0.00 | 0.00 | 58 | 1014.1 |
| 20260905033512 | 90 | 178 | 4.0 | 14.0 | 0.00 | 0.00 | 0.00 | 58 | 1014.1 |
| 20260905033007 | 90 | 142 | 12.0 | 14.0 | 0.00 | 0.00 | 0.00 | 58 | 1014.1 |
| 20260905032501 | 90 | 202 | 11.0 | 11.0 | 0.00 | 0.00 | 0.00 | 57 | 1014.2 |
| 20260905032000 | 90 | 157 | 6.0 | 9.0 | 0.00 | 0.00 | 0.00 | 57 | 1014.0 |
| 20260905031458 | 91 | 206 | 9.0 | 11.0 | 0.00 | 0.00 | 0.00 | 56 | 1014.1 |
| 20260905031000 | 91 | 180 | 3.0 | 11.0 | 0.00 | 0.00 | 0.00 | 55 | 1013.9 |
| 20260905030459 | 91 | 183 | 6.0 | 12.0 | 0.00 | 0.00 | 0.00 | 55 | 1013.9 |
| 20260905025957 | 91 | 180 | 3.0 | 12.0 | 0.00 | 0.00 | 0.00 | 55 | 1013.9 |
| 20260905025457 | 91 | 180 | 6.0 | 12.0 | 0.00 | 0.00 | 0.00 | 54 | 1013.8 |
| 20260905024956 | 91 | 160 | 4.0 | 8.0 | 0.00 | 0.00 | 0.00 | 54 | 1013.9 |
| 20260905024456 | 91 | 152 | 2.0 | 7.0 | 0.00 | 0.00 | 0.00 | 54 | 1013.7 |
| 20260905023953 | 91 | 158 | 3.0 | 7.0 | 0.00 | 0.00 | 0.00 | 54 | 1013.7 |
| 20260905023455 | 91 | 155 | 6.0 | 6.0 | 0.00 | 0.00 | 0.00 | 54 | 1013.6 |
| 20260905022955 | 92 | 155 | 3.0 | 8.0 | 0.00 | 0.00 | 0.00 | 53 | 1013.5 |
| 20260905022453 | 92 | 155 | 3.0 | 10.0 | 0.00 | 0.00 | 0.00 | 53 | 1013.5 |
| 20260905021952 | 92 | 173 | 7.0 | 11.0 | 0.00 | 0.00 | 0.00 | 53 | 1013.4 |
| 20260905021451 | 92 | 153 | 4.0 | 11.0 | 0.00 | 0.00 | 0.00 | 53 | 1013.3 |
| 20260905020951 | 92 | 157 | 6.0 | 13.0 | 0.00 | 0.00 | 0.00 | 52 | 1013.2 |
| 20260905020449 | 92 | 161 | 5.0 | 14.0 | 0.00 | 0.00 | 0.00 | 52 | 1013.1 |
| 20260905015947 | 92 | 189 | 5.0 | 14.0 | 0.00 | 0.00 | 0.00 | 52 | 1013.1 |
| 20260905015451 | 92 | 148 | 12.0 | 14.0 | 0.00 | 0.00 | 0.00 | 52 | 1012.9 |
| 20260905014950 | 93 | 142 | 5.0 | 12.0 | 0.00 | 0.00 | 0.00 | 53 | 1012.8 |
| 20260905014547 | 93 | 150 | 6.0 | 11.0 | 0.00 | 0.00 | 0.00 | 53 | 1012.6 |
| 20260905014046 | 93 | 136 | 9.0 | 11.0 | 0.00 | 0.00 | 0.00 | 52 | 1012.6 |
| 20260905013548 | 93 | 142 | 3.0 | 11.0 | 0.00 | 0.00 | 0.00 | 52 | 1012.5 |
| 20260905013143 | 93 | 114 | 4.0 | 15.0 | 0.00 | 0.00 | 0.00 | 52 | 1012.5 |
| 20260905012643 | 93 | 122 | 5.0 | 15.0 | 0.00 | 0.00 | 0.00 | 52 | 1012.5 |
| 20260905012045 | 93 | 150 | 10.0 | 14.0 | 0.00 | 0.00 | 0.00 | 52 | 1012.5 |
| 20260905011644 | 93 | 142 | 10.0 | 12.0 | 0.00 | 0.00 | 0.00 | 52 | 1012.3 |
| 20260905011141 | 93 | 138 | 7.0 | 14.0 | 0.00 | 0.00 | 0.00 | 52 | 1012.3 |
| 20260905010640 | 94 | 177 | 4.0 | 14.0 | 0.00 | 0.00 | 0.00 | 52 | 1012.3 |
| 20260905010139 | 94 | 139 | 11.0 | 13.0 | 0.00 | 0.00 | 0.00 | 52 | 1012.2 |
| 20260905005640 | 94 | 134 | 7.0 | 12.0 | 0.00 | 0.00 | 0.00 | 52 | 1012.2 |
| 20260905005139 | 94 | 178 | 5.0 | 14.0 | 0.00 | 0.00 | 0.00 | 51 | 1012.1 |
| 20260905004638 | 94 | 121 | 9.0 | 14.0 | 0.00 | 0.00 | 0.00 | 51 | 1012.0 |
| 20260905004136 | 95 | 122 | 9.0 | 15.0 | 0.00 | 0.00 | 0.00 | 51 | 1011.9 |
| 20260905003638 | 95 | 144 | 5.0 | 15.0 | 0.00 | 0.00 | 0.00 | 50 | 1011.8 |
| 20260905003135 | 95 | 134 | 7.0 | 15.0 | 0.00 | 0.00 | 0.00 | 50 | 1011.8 |
| 20260905002635 | 95 | 118 | 11.0 | 15.0 | 0.00 | 0.00 | 0.00 | 50 | 1011.6 |
| 20260905002133 | 96 | 148 | 9.0 | 14.0 | 0.00 | 0.00 | 0.00 | 49 | 1011.6 |
| 20260905001632 | 96 | 147 | 5.0 | 14.0 | 0.00 | 0.00 | 0.00 | 48 | 1011.6 |
| 20260905001131 | 96 | 115 | 4.0 | 12.0 | 0.00 | 0.00 | 0.00 | 47 | 1011.6 |
| 20260905000631 | 97 | 138 | 5.0 | 12.0 | 0.00 | 0.00 | 0.00 | 47 | 1011.5 |
| 20260905000130 | 97 | 136 | 10.0 | 11.0 | 0.00 | 0.00 | 0.00 | 47 | 1011.6 |
| 20260904235628 | 97 | 116 | 7.0 | 10.0 | 0.00 | 0.00 | 0.00 | 46 | 1011.6 |
| 20260904235130 | 97 | 123 | 3.0 | 9.0 | 0.00 | 0.00 | 0.00 | 46 | 1011.6 |
| 20260904234629 | 97 | 150 | 3.0 | 10.0 | 0.00 | 0.00 | 0.00 | 45 | 1011.5 |
| 20260904234128 | 97 | 164 | 5.0 | 11.0 | 0.00 | 0.00 | 0.00 | 46 | 1011.6 |
| 20260904233627 | 97 | 192 | 7.0 | 12.0 | 0.00 | 0.00 | 0.00 | 45 | 1011.5 |
| 20260904233126 | 97 | 155 | 3.0 | 14.0 | 0.00 | 0.00 | 0.00 | 45 | 1011.6 |
| 20260904232625 | 97 | 202 | 5.0 | 14.0 | 0.00 | 0.00 | 0.00 | 45 | 1011.5 |
| 20260904232126 | 97 | 181 | 3.0 | 10.0 | 0.00 | 0.00 | 0.00 | 45 | 1011.6 |
| 20260904231624 | 97 | 171 | 2.0 | 10.0 | 0.00 | 0.00 | 0.00 | 45 | 1011.6 |
| 20260904231124 | 97 | 195 | 6.0 | 10.0 | 0.00 | 0.00 | 0.00 | 45 | 1011.8 |
| 20260904230624 | 98 | 134 | 10.0 | 12.0 | 0.00 | 0.00 | 0.00 | 45 | 1011.6 |
| 20260904230124 | 97 | 155 | 6.0 | 12.0 | 0.00 | 0.00 | 0.00 | 46 | 1011.6 |
| 20260904225622 | 97 | 162 | 7.0 | 11.0 | 0.00 | 0.00 | 0.00 | 45 | 1011.7 |
| 20260904225123 | 98 | 161 | 6.0 | 13.0 | 0.00 | 0.00 | 0.00 | 45 | 1011.7 |
| 20260904224622 | 98 | 155 | 6.0 | 13.0 | 0.00 | 0.00 | 0.00 | 45 | 1011.8 |
| 20260904224121 | 98 | 198 | 6.0 | 11.0 | 0.00 | 0.00 | 0.00 | 46 | 1011.8 |
| 20260904223620 | 98 | 161 | 6.0 | 16.0 | 0.00 | 0.00 | 0.00 | 45 | 1011.8 |
| 20260904223121 | 97 | 95 | 3.0 | 16.0 | 0.00 | 0.00 | 0.00 | 46 | 1011.9 |
| 20260904222620 | 97 | 155 | 9.0 | 16.0 | 0.00 | 0.00 | 0.00 | 46 | 1011.9 |
| 20260904222120 | 97 | 149 | 6.0 | 10.0 | 0.00 | 0.00 | 0.00 | 46 | 1011.9 |
| 20260904221621 | 97 | 214 | 7.0 | 9.0 | 0.00 | 0.00 | 0.00 | 46 | 1011.9 |
| 20260904221119 | 97 | 203 | 4.0 | 13.0 | 0.00 | 0.00 | 0.00 | 46 | 1012.0 |
| 20260904220620 | 97 | 130 | 3.0 | 13.0 | 0.00 | 0.00 | 0.00 | 46 | 1012.0 |
| 20260904220119 | 98 | 140 | 9.0 | 16.0 | 0.00 | 0.00 | 0.00 | 46 | 1012.0 |
| 20260904215618 | 98 | 138 | 9.0 | 16.0 | 0.00 | 0.00 | 0.00 | 46 | 1011.9 |
| 20260904215119 | 97 | 196 | 4.0 | 15.0 | 0.00 | 0.00 | 0.00 | 47 | 1012.1 |
| 20260904214619 | 97 | 146 | 6.0 | 13.0 | 0.00 | 0.00 | 0.00 | 47 | 1012.0 |
| 20260904214118 | 97 | 134 | 8.0 | 16.0 | 0.00 | 0.00 | 0.00 | 46 | 1012.1 |
| 20260904213618 | 97 | 118 | 6.0 | 16.0 | 0.00 | 0.00 | 0.00 | 47 | 1012.1 |
| 20260904213118 | 97 | 175 | 6.0 | 15.0 | 0.00 | 0.00 | 0.00 | 47 | 1012.1 |
| 20260904212616 | 97 | 123 | 5.0 | 14.0 | 0.00 | 0.00 | 0.00 | 47 | 1012.2 |
| 20260904212119 | 97 | 209 | 8.0 | 14.0 | 0.00 | 0.00 | 0.00 | 47 | 1012.3 |
| 20260904211619 | 97 | 162 | 4.0 | 12.0 | 0.00 | 0.00 | 0.00 | 46 | 1012.5 |
| 20260904211118 | 97 | 163 | 2.0 | 12.0 | 0.00 | 0.00 | 0.00 | 47 | 1012.5 |
| 20260904210615 | 97 | 207 | 5.0 | 17.0 | 0.00 | 0.00 | 0.00 | 46 | 1012.4 |
| 20260904210116 | 97 | 259 | 2.0 | 17.0 | 0.00 | 0.00 | 0.00 | 47 | 1012.6 |
| 20260904205616 | 97 | 161 | 6.0 | 17.0 | 0.00 | 0.00 | 0.00 | 47 | 1012.7 |
| 20260904205115 | 97 | 193 | 7.0 | 17.0 | 0.00 | 0.00 | 0.00 | 48 | 1012.7 |
| 20260904204615 | 97 | 215 | 5.0 | 15.0 | 0.00 | 0.00 | 0.00 | 47 | 1012.8 |
| 20260904204115 | 97 | 208 | 6.0 | 14.0 | 0.00 | 0.00 | 0.00 | 50 | 1012.7 |
| 20260904203616 | 97 | 214 | 10.0 | 14.0 | 0.00 | 0.00 | 0.00 | 48 | 1013.0 |
| 20260904203116 | 96 | 197 | 9.0 | 15.0 | 0.00 | 0.00 | 0.00 | 50 | 1013.0 |
| 20260904202621 | 96 | 212 | 5.0 | 15.0 | 0.00 | 0.00 | 0.00 | 49 | 1013.0 |
| 20260904202117 | 96 | 182 | 7.0 | 13.0 | 0.00 | 0.00 | 0.00 | 50 | 1013.2 |
| 20260904201614 | 96 | 221 | 10.0 | 13.0 | 0.00 | 0.00 | 0.00 | 51 | 1013.2 |
| 20260904201114 | 96 | 202 | 6.0 | 12.0 | 0.00 | 0.00 | 0.00 | 51 | 1013.3 |
| 20260904200614 | 96 | 133 | 8.0 | 14.0 | 0.00 | 0.00 | 0.00 | 52 | 1013.4 |
| 20260904200114 | 95 | 149 | 10.0 | 16.0 | 0.00 | 0.00 | 0.00 | 53 | 1013.5 |
| 20260904195614 | 95 | 145 | 11.0 | 16.0 | 0.00 | 0.00 | 0.00 | 52 | 1013.6 |
| 20260904195114 | 96 | 207 | 8.0 | 15.0 | 0.00 | 0.00 | 0.00 | 53 | 1013.6 |
| 20260904194615 | 95 | 202 | 7.0 | 15.0 | 0.00 | 0.00 | 0.00 | 52 | 1013.7 |
| 20260904194114 | 95 | 163 | 7.0 | 14.0 | 0.00 | 0.00 | 0.00 | 53 | 1013.7 |
| 20260904193614 | 94 | 140 | 3.0 | 15.0 | 0.00 | 0.00 | 0.00 | 54 | 1013.8 |
| 20260904193113 | 94 | 181 | 3.0 | 16.0 | 0.00 | 0.00 | 0.00 | 53 | 1013.8 |
| 20260904192614 | 95 | 116 | 10.0 | 18.0 | 0.00 | 0.00 | 0.00 | 53 | 1013.8 |
| 20260904192111 | 95 | 117 | 9.0 | 18.0 | 0.00 | 0.00 | 0.00 | 53 | 1014.0 |
| 20260904191614 | 95 | 140 | 7.0 | 11.0 | 0.00 | 0.00 | 0.00 | 55 | 1013.9 |
| 20260904191110 | 95 | 228 | 6.0 | 12.0 | 0.00 | 0.00 | 0.00 | 53 | 1014.0 |
| 20260904190612 | 95 | 183 | 3.0 | 12.0 | 0.00 | 0.00 | 0.00 | 54 | 1014.1 |
| 20260904190113 | 94 | 238 | 8.0 | 11.0 | 0.00 | 0.00 | 0.00 | 55 | 1014.1 |
| 20260904185613 | 94 | 161 | 7.0 | 11.0 | 0.00 | 0.00 | 0.00 | 54 | 1014.2 |
| 20260904185112 | 94 | 119 | 2.0 | 14.0 | 0.00 | 0.00 | 0.00 | 54 | 1014.2 |
| 20260904184610 | 94 | 153 | 3.0 | 14.0 | 0.00 | 0.00 | 0.00 | 53 | 1014.3 |
| 20260904184111 | 93 | 109 | 9.0 | 16.0 | 0.00 | 0.00 | 0.00 | 52 | 1014.4 |
| 20260904183614 | 93 | 218 | 8.0 | 16.0 | 0.00 | 0.00 | 0.00 | 53 | 1014.5 |
| 20260904183114 | 93 | 132 | 7.0 | 11.0 | 0.00 | 0.00 | 0.00 | 53 | 1014.5 |
| 20260904182611 | 93 | 133 | 5.0 | 12.0 | 0.00 | 0.00 | 0.00 | 54 | 1014.6 |
| 20260904182113 | 93 | 130 | 5.0 | 12.0 | 0.00 | 0.00 | 0.00 | 54 | 1014.6 |
| 20260904181613 | 93 | 117 | 10.0 | 10.0 | 0.00 | 0.00 | 0.00 | 54 | 1014.7 |
| 20260904181113 | 92 | 207 | 1.0 | 14.0 | 0.00 | 0.00 | 0.00 | 56 | 1014.7 |